Regional Weather Roundup
Issued by NWS Bismarck, ND

Home | Current Version | Previous Version | Text Only | Print | Product List | Glossary On
Versions: 1 2 3 4 5 6 7 8 9 10 11 12 13 14 15 16 17 18 19 20 21 22 23 24 25 26 27 28 29 30 31 32 33 34 35 36 37 38 39 40 41 42 43 44 45 46 47 48 49 50
000
ASUS43 KBIS 191520
RWRBIS

NWR BROADCAST TEXT
NATIONAL WEATHER SERVICE BISMARCK ND
1000 AM CDT SUN APR 19 2015

NOTE: "FAIR" INDICATES FEW OR NO CLOUDS BELOW 12,000 FEET WITH NO
SIGNIFICANT WEATHER AND/OR OBSTRUCTIONS TO VISIBILITY.


CITY           SKY/WX    TMP DP  RH WIND       PRES   REMARKS
WILLISTON      CLOUDY    41  34  76 NW20      30.02S
MINOT          PTSUNNY   45  37  73 W22G29    29.88S
MINOT AFB      PTSUNNY   44  41  87 NW23G30   29.86F
BISMARCK       MOSUNNY   45  34  65 NW23G37   29.90F
DICKINSON      CLOUDY    41  32  70 NW28G36   29.97F
GARRISON         N/A     44  37  76 NW29G37   29.89F
HETTINGER ARPT MOSUNNY   40  30  67 NW31G39   30.00F
JAMESTOWN      CLOUDY    44  39  82 NW21      29.78S
BEACH          CLOUDY    37  28  70 NW26G38   30.07S
CARRINGTON     PTSUNNY   41  41 100 NW25G31   29.80F
CROSBY         CLOUDY    37  37 100 NW20G28   30.00R
HARVEY           N/A    N/A N/A N/A MISG        N/A
HAZEN          PTSUNNY   43  36  75 NW22      29.93R
LINTON         FAIR      45  37  76 NW25G31   29.89F
MANDAN         FAIR      45  36  70 NW24G32   29.90F
OAKES            N/A     45  43  93 NW18G25   29.78F
STANLEY        MIX PCPN  39  37  93 NW22G33   29.94S
TIOGA          CLOUDY    37  37 100 NW24G37   29.99S
WATFORD CITY   CLOUDY    37  36  93 NW17G24   29.99S
$$

CITY           SKY/WX    TMP DP  RH WIND       PRES   REMARKS
GRAND FORKS    LGT RAIN  44  43  96 NW14      29.71S FOG
GRAND FORKS AF LGT RAIN  44  41  89 NW17      29.71S
DEVILS LAKE    CLOUDY    43  36  75 NW14      29.77S
FARGO          LGT RAIN  45  42  89 NW20G32   29.71R FOG
CANDO          PTSUNNY   41  39  93 NW16G25   29.79S
CAVALIER       LGT RAIN  45  41  87 NW15      29.71S
GRAFTON        LGT RAIN  45  45 100 NW12      29.71S
GWINNER          N/A     46  43  87 NW25G31   29.76F
LANGDON        CLOUDY    43  41  93 NW20G25   29.73S FOG
ROLLA          LGT RAIN  36  36 100 NW20G25   29.80S
WALHALLA       RAIN      45  45 100 NW14      29.72F
$$

CITY           SKY/WX    TMP DP  RH WIND       PRES   REMARKS
ABERDEEN       CLOUDY    47  39  74 NW23G30   29.83S
MOBRIDGE       SUNNY     46  35  65 NW23G31   29.88F
BUFFALO          N/A     42  27  55 NW37G46   29.96F
RAPID CITY     SUNNY     44  26  49 NW29G39   30.06F
GLASGOW        MOSUNNY   41  28  60 NW22      30.17S
SIDNEY         CLOUDY    43  30  61 NW22G30   30.07R
WOLF POINT     CLOUDY    43  30  60 NW21G31   30.14S
GLENDIVE       CLOUDY    41  28  60 NW26G35   30.10S
MILES CITY     SUNNY     44  26  49 NW25G31   30.16F
BAKER          MOSUNNY   40  27  59 NW29G37   30.09F
$$

CITY           SKY/WX    TMP DP  RH WIND       PRES   REMARKS
BILLINGS       SUNNY     42  24  49 VRB6      30.25S
GREAT FALLS    MOSUNNY   40  31  70 SW6       30.25F
REGINA         CLOUDY    37  32  81 NW25G31   30.07R
ESTEVAN        LGT RAIN  39  34  81 NW23G32   29.97S
$$



USA.gov is the U.S. government's official web portal to all federal, state and local government web resources and services.